Find Bangabandhu 1

NORAD ID: 43463 Int'l Des: 2018-044 Owner: BCSCL Country: BD operational
HEOCIRCULARGSOGEO

当前视图

正在加载3D地球...

About Bangabandhu 1

Bangabandhu 1 (NORAD 43463) is a satellite launched May 11, 2018 by BCSCL of BD. It operates in HEO, CIRCULAR, GSO, GEO orbit with a mass of 3700.00 kg.

即将过境

Passes for default location (London). Set your location on the main map for personalized predictions.

高度历史

Loading altitude history...

两行轨道根数

1 43463U 18044A 26194.79845213 -.00000367 00000-0 00000+0 0 9994
2 43463 0.0198 94.0373 0001656 31.6335 212.5357 1.00270746 29974
Epoch: Jul 13, 2026 • Age: 8 hours

当前状态

高度 35780.3 km
远地点 / 近地点 N/A
速度 3.08 km/s
星下点 0.02°N, 119.09°E
发射日期 May 11, 2018
运行时间 8.1 years
类型 other

技术详情

分类 Payload
质量 3700.00 kg
干质量 2000.00 kg
总质量 3700.00 kg
长度 5.00 m
直径 2.50 m
跨度 38.00 m
形状 Box + 2 Pan
制造商 THALES
平台类型 Spacebus 4000B2
阶段状态 In Orbit
所有者/国家 BCSCL/BD

Most Searched